Time,TemperatureF,DewpointF,PressureIn,WindDirection,WindDirectionDegrees,WindSpeedMPH,WindSpeedGustMPH,Humidity,HourlyPrecipIn,Conditions,Clouds,dailyrainin,SoftwareType,DateUTC
2013-03-01 00:03:00,39.7,37.9,30.55,North,0,5.0,6.0,93,0.00,,,0.00,meteohub,2013-03-01 00:03:00,
2013-03-01 00:08:00,39.7,37.9,30.55,North,0,5.0,6.0,93,0.00,,,0.00,meteohub,2013-03-01 00:08:00,
2013-03-01 00:13:00,39.7,37.9,30.55,North,0,4.0,6.0,93,0.00,,,0.00,meteohub,2013-03-01 00:13:00,
2013-03-01 00:18:00,39.7,37.9,30.52,NNE,22,4.0,6.0,93,0.00,,,0.00,meteohub,2013-03-01 00:18:00,
2013-03-01 00:24:00,39.7,37.9,30.52,NNE,22,3.0,6.0,93,0.00,,,0.00,meteohub,2013-03-01 00:24:00,
2013-03-01 00:29:00,39.7,37.9,30.52,NNE,22,4.0,6.0,93,0.00,,,0.00,meteohub,2013-03-01 00:29:00,
2013-03-01 00:34:00,39.7,37.9,30.52,NNE,22,4.0,4.0,93,0.00,,,0.00,meteohub,2013-03-01 00:34:00,
2013-03-01 00:39:00,39.7,37.9,30.52,North,0,5.0,5.0,93,0.00,,,0.00,meteohub,2013-03-01 00:39:00,
2013-03-01 00:44:00,39.9,38.1,30.52,North,0,4.0,5.0,93,0.00,,,0.00,meteohub,2013-03-01 00:44:00,
2013-03-01 00:49:00,39.9,38.1,30.52,North,0,4.0,5.0,93,0.00,,,0.00,meteohub,2013-03-01 00:49:00,
2013-03-01 00:54:00,39.9,38.1,30.52,North,0,2.0,5.0,93,0.00,,,0.00,meteohub,2013-03-01 00:54:00,
2013-03-01 00:59:00,39.9,38.1,30.52,North,0,3.0,5.0,93,0.00,,,0.00,meteohub,2013-03-01 00:59:00,
2013-03-01 01:04:00,39.9,38.1,30.52,NNE,22,2.0,4.0,93,0.00,,,0.00,meteohub,2013-03-01 01:04:00,
2013-03-01 01:09:00,39.9,38.1,30.52,North,0,3.0,4.0,93,0.00,,,0.00,meteohub,2013-03-01 01:09:00,
2013-03-01 01:14:00,39.7,37.9,30.52,North,0,3.0,4.0,93,0.00,,,0.00,meteohub,2013-03-01 01:14:00,
2013-03-01 01:20:00,39.7,37.6,30.52,North,0,0.0,4.0,92,0.00,,,0.00,meteohub,2013-03-01 01:20:00,
2013-03-01 01:25:00,39.7,37.6,30.52,North,0,0.0,4.0,92,0.00,,,0.00,meteohub,2013-03-01 01:25:00,
2013-03-01 01:30:00,39.6,37.4,30.52,NNE,22,3.0,4.0,92,0.00,,,0.00,meteohub,2013-03-01 01:30:00,
2013-03-01 01:35:00,39.6,37.4,30.52,North,0,5.0,6.0,92,0.00,,,0.00,meteohub,2013-03-01 01:35:00,
2013-03-01 01:40:00,39.6,37.4,30.52,North,0,4.0,6.0,92,0.00,,,0.00,meteohub,2013-03-01 01:40:00,
2013-03-01 01:45:00,39.7,37.6,30.52,NNW,338,5.0,6.0,92,0.00,,,0.00,meteohub,2013-03-01 01:45:00,
2013-03-01 01:50:00,39.7,37.6,30.52,NNW,338,7.0,7.0,92,0.00,,,0.00,meteohub,2013-03-01 01:50:00,
2013-03-01 01:55:00,39.9,37.8,30.52,NNW,338,6.0,7.0,92,0.00,,,0.00,meteohub,2013-03-01 01:55:00,
2013-03-01 02:00:00,40.3,38.1,30.52,NNW,338,7.0,7.0,92,0.00,,,0.00,meteohub,2013-03-01 02:00:00,
2013-03-01 02:05:00,40.5,38.3,30.52,NNW,338,7.0,8.0,92,0.00,,,0.00,meteohub,2013-03-01 02:05:00,
2013-03-01 02:10:00,40.5,38.3,30.52,NNW,338,6.0,8.0,92,0.00,,,0.00,meteohub,2013-03-01 02:10:00,
2013-03-01 02:15:00,40.5,38.3,30.52,NNW,338,6.0,8.0,92,0.00,,,0.00,meteohub,2013-03-01 02:15:00,
2013-03-01 02:20:00,40.6,38.3,30.52,NNW,338,6.0,7.0,91,0.00,,,0.00,meteohub,2013-03-01 02:20:00,
2013-03-01 02:26:00,40.6,38.3,30.52,NNW,338,4.0,7.0,91,0.00,,,0.00,meteohub,2013-03-01 02:26:00,
2013-03-01 02:31:00,40.6,37.9,30.52,NNW,338,8.0,8.0,90,0.00,,,0.00,meteohub,2013-03-01 02:31:00,
2013-03-01 02:36:00,40.6,37.6,30.52,NNW,338,8.0,8.0,89,0.00,,,0.00,meteohub,2013-03-01 02:36:00,
2013-03-01 02:41:00,40.8,37.8,30.52,NNW,338,6.0,8.0,89,0.00,,,0.00,meteohub,2013-03-01 02:41:00,
2013-03-01 02:46:00,41.0,37.8,30.52,NNW,338,8.0,8.0,88,0.00,,,0.00,meteohub,2013-03-01 02:46:00,
2013-03-01 02:51:00,41.0,37.8,30.52,NNW,338,7.0,9.0,88,0.00,,,0.00,meteohub,2013-03-01 02:51:00,
2013-03-01 02:56:00,41.0,37.4,30.52,NNW,338,8.0,9.0,87,0.00,,,0.00,meteohub,2013-03-01 02:56:00,
2013-03-01 03:01:00,41.0,37.4,30.52,NNW,338,7.0,9.0,87,0.00,,,0.00,meteohub,2013-03-01 03:01:00,
2013-03-01 03:06:00,41.0,37.4,30.52,NNW,338,9.0,9.0,87,0.00,,,0.00,meteohub,2013-03-01 03:06:00,
2013-03-01 03:11:00,41.0,37.2,30.52,NNW,338,7.0,9.0,86,0.00,,,0.00,meteohub,2013-03-01 03:11:00,
2013-03-01 03:16:00,40.8,37.0,30.52,NNW,338,7.0,9.0,86,0.00,,,0.00,meteohub,2013-03-01 03:16:00,
2013-03-01 03:21:00,40.6,36.9,30.52,NNW,338,6.0,9.0,86,0.00,,,0.00,meteohub,2013-03-01 03:21:00,
2013-03-01 03:26:00,40.6,36.9,30.52,North,0,7.0,8.0,86,0.00,,,0.00,meteohub,2013-03-01 03:26:00,
2013-03-01 03:31:00,40.5,36.7,30.52,NNW,338,6.0,8.0,86,0.00,,,0.00,meteohub,2013-03-01 03:31:00,
2013-03-01 03:36:00,40.5,36.7,30.52,NNW,338,6.0,8.0,86,0.00,,,0.00,meteohub,2013-03-01 03:36:00,
2013-03-01 03:42:00,40.5,36.7,30.52,NNW,338,6.0,8.0,86,0.00,,,0.00,meteohub,2013-03-01 03:42:00,
2013-03-01 03:47:00,40.5,36.7,30.52,NNW,338,6.0,7.0,86,0.00,,,0.00,meteohub,2013-03-01 03:47:00,
2013-03-01 03:52:00,40.3,36.1,30.49,NNW,338,8.0,9.0,85,0.00,,,0.00,meteohub,2013-03-01 03:52:00,
2013-03-01 03:57:00,40.5,36.3,30.49,NNW,338,7.0,9.0,85,0.00,,,0.00,meteohub,2013-03-01 03:57:00,
2013-03-01 04:02:00,40.5,36.3,30.49,NNW,338,4.0,9.0,85,0.00,,,0.00,meteohub,2013-03-01 04:02:00,
2013-03-01 04:07:00,40.5,36.3,30.49,North,0,6.0,9.0,85,0.00,,,0.00,meteohub,2013-03-01 04:07:00,
2013-03-01 04:12:00,40.3,36.1,30.49,NNE,22,5.0,9.0,85,0.00,,,0.00,meteohub,2013-03-01 04:12:00,
2013-03-01 04:17:00,40.3,36.1,30.49,North,0,6.0,7.0,85,0.00,,,0.00,meteohub,2013-03-01 04:17:00,
2013-03-01 04:22:00,40.3,36.1,30.52,North,0,6.0,6.0,85,0.00,,,0.00,meteohub,2013-03-01 04:22:00,
2013-03-01 04:27:00,40.3,36.1,30.52,North,0,6.0,6.0,85,0.00,,,0.00,meteohub,2013-03-01 04:27:00,
2013-03-01 04:32:00,40.3,36.1,30.52,NNE,22,4.0,6.0,85,0.00,,,0.00,meteohub,2013-03-01 04:32:00,
2013-03-01 04:37:00,40.1,36.0,30.52,NNE,22,6.0,6.0,85,0.00,,,0.00,meteohub,2013-03-01 04:37:00,
2013-03-01 04:42:00,39.9,35.8,30.52,North,0,5.0,6.0,85,0.00,,,0.00,meteohub,2013-03-01 04:42:00,
2013-03-01 04:48:00,39.7,35.2,30.52,NNE,22,5.0,6.0,84,0.00,,,0.00,meteohub,2013-03-01 04:48:00,
2013-03-01 04:53:00,39.6,35.1,30.52,NNE,22,6.0,6.0,84,0.00,,,0.00,meteohub,2013-03-01 04:53:00,
2013-03-01 04:58:00,39.4,34.9,30.52,NNE,22,4.0,6.0,84,0.00,,,0.00,meteohub,2013-03-01 04:58:00,
2013-03-01 05:00:00,39.4,34.9,30.52,NNE,22,4.0,6.0,84,0.00,,,0.00,meteohub,2013-03-01 05:00:00,
2013-03-01 05:01:00,39.4,34.9,30.52,NNE,22,6.0,6.0,84,0.00,,,0.00,meteohub,2013-03-01 05:01:00,
2013-03-01 05:02:00,39.2,34.7,30.52,North,0,5.0,6.0,84,0.00,,,0.00,meteohub,2013-03-01 05:02:00,
2013-03-01 05:04:00,39.2,34.7,30.52,NNE,22,6.0,6.0,84,0.00,,,0.00,meteohub,2013-03-01 05:04:00,
2013-03-01 05:09:00,39.0,34.5,30.52,North,0,5.0,6.0,84,0.00,,,0.00,meteohub,2013-03-01 05:09:00,
2013-03-01 05:11:00,38.8,34.5,30.52,North,0,6.0,6.0,84,0.00,,,0.00,meteohub,2013-03-01 05:11:00,
2013-03-01 05:16:00,38.7,34.3,30.52,North,0,7.0,7.0,84,0.00,,,0.00,meteohub,2013-03-01 05:16:00,
2013-03-01 05:21:00,38.3,34.0,30.49,North,0,7.0,7.0,84,0.00,,,0.00,meteohub,2013-03-01 05:21:00,
2013-03-01 05:26:00,37.9,33.3,30.49,North,0,6.0,7.0,83,0.00,,,0.00,meteohub,2013-03-01 05:26:00,
2013-03-01 05:31:00,37.8,33.1,30.49,North,0,7.0,7.0,83,0.00,,,0.00,meteohub,2013-03-01 05:31:00,
2013-03-01 05:36:00,37.4,32.7,30.49,North,0,7.0,8.0,83,0.00,,,0.00,meteohub,2013-03-01 05:36:00,
2013-03-01 05:41:00,37.2,32.9,30.49,North,0,6.0,8.0,84,0.00,,,0.00,meteohub,2013-03-01 05:41:00,
2013-03-01 05:47:00,37.0,32.7,30.49,North,0,7.0,8.0,84,0.00,,,0.00,meteohub,2013-03-01 05:47:00,
2013-03-01 05:52:00,36.9,32.7,30.49,North,0,7.0,8.0,85,0.00,,,0.00,meteohub,2013-03-01 05:52:00,
2013-03-01 05:57:00,36.9,32.7,30.49,North,0,6.0,8.0,85,0.00,,,0.00,meteohub,2013-03-01 05:57:00,
2013-03-01 06:02:00,36.9,32.7,30.49,North,0,6.0,8.0,85,0.00,,,0.00,meteohub,2013-03-01 06:02:00,
2013-03-01 06:07:00,36.7,32.5,30.49,North,0,7.0,8.0,85,0.00,,,0.00,meteohub,2013-03-01 06:07:00,
2013-03-01 06:12:00,36.7,32.9,30.49,North,0,7.0,7.0,86,0.00,,,0.00,meteohub,2013-03-01 06:12:00,
2013-03-01 06:17:00,36.5,32.7,30.49,North,0,7.0,7.0,86,0.00,,,0.00,meteohub,2013-03-01 06:17:00,
2013-03-01 06:22:00,36.3,32.5,30.49,North,0,6.0,7.0,86,0.00,,,0.00,meteohub,2013-03-01 06:22:00,
2013-03-01 06:27:00,36.3,32.5,30.49,North,0,6.0,7.0,86,0.00,,,0.00,meteohub,2013-03-01 06:27:00,
2013-03-01 06:32:00,36.1,32.4,30.49,North,0,7.0,7.0,86,0.00,,,0.00,meteohub,2013-03-01 06:32:00,
2013-03-01 06:37:00,36.0,31.8,30.49,North,0,6.0,7.0,85,0.00,,,0.00,meteohub,2013-03-01 06:37:00,
2013-03-01 06:42:00,35.8,31.6,30.49,North,0,3.0,7.0,85,0.00,,,0.00,meteohub,2013-03-01 06:42:00,
2013-03-01 06:48:00,35.4,31.6,30.49,North,0,1.0,7.0,86,0.00,,,0.00,meteohub,2013-03-01 06:48:00,
2013-03-01 06:53:00,35.1,31.3,30.49,North,0,0.0,7.0,86,0.00,,,0.00,meteohub,2013-03-01 06:53:00,
2013-03-01 06:58:00,34.9,30.9,30.49,North,0,4.0,4.0,85,0.00,,,0.00,meteohub,2013-03-01 06:58:00,
2013-03-01 07:03:00,34.5,30.6,30.52,North,0,6.0,6.0,85,0.00,,,0.00,meteohub,2013-03-01 07:03:00,
2013-03-01 07:08:00,34.5,30.6,30.52,North,0,6.0,7.0,85,0.00,,,0.00,meteohub,2013-03-01 07:08:00,
2013-03-01 07:13:00,34.3,30.6,30.52,North,0,7.0,7.0,86,0.00,,,0.00,meteohub,2013-03-01 07:13:00,
2013-03-01 07:18:00,34.3,30.6,30.52,North,0,6.0,7.0,86,0.00,,,0.00,meteohub,2013-03-01 07:18:00,
2013-03-01 07:23:00,34.3,30.6,30.52,North,0,5.0,7.0,86,0.00,,,0.00,meteohub,2013-03-01 07:23:00,
2013-03-01 07:28:00,34.2,30.4,30.52,North,0,6.0,7.0,86,0.00,,,0.00,meteohub,2013-03-01 07:28:00,
2013-03-01 07:33:00,34.2,30.4,30.52,North,0,6.0,7.0,86,0.00,,,0.00,meteohub,2013-03-01 07:33:00,
2013-03-01 07:38:00,34.2,30.7,30.52,North,0,6.0,6.0,87,0.00,,,0.00,meteohub,2013-03-01 07:38:00,
2013-03-01 07:44:00,34.3,30.9,30.52,North,0,7.0,7.0,87,0.00,,,0.00,meteohub,2013-03-01 07:44:00,
2013-03-01 07:49:00,34.5,31.3,30.52,North,0,7.0,7.0,88,0.00,,,0.00,meteohub,2013-03-01 07:49:00,
2013-03-01 07:54:00,34.7,31.5,30.52,North,0,6.0,7.0,88,0.00,,,0.00,meteohub,2013-03-01 07:54:00,
2013-03-01 07:59:00,34.9,31.6,30.52,North,0,6.0,7.0,88,0.00,,,0.00,meteohub,2013-03-01 07:59:00,
2013-03-01 08:04:00,35.1,31.8,30.52,North,0,6.0,7.0,88,0.00,,,0.00,meteohub,2013-03-01 08:04:00,
2013-03-01 08:09:00,35.2,32.4,30.52,North,0,6.0,7.0,89,0.00,,,0.00,meteohub,2013-03-01 08:09:00,
2013-03-01 08:14:00,35.4,32.5,30.52,North,0,6.0,7.0,89,0.00,,,0.00,meteohub,2013-03-01 08:14:00,
2013-03-01 08:19:00,35.8,32.5,30.52,North,0,6.0,7.0,88,0.00,,,0.00,meteohub,2013-03-01 08:19:00,
2013-03-01 08:24:00,36.0,33.1,30.52,NE,45,2.0,6.0,89,0.00,,,0.00,meteohub,2013-03-01 08:24:00,
2013-03-01 08:29:00,36.1,33.3,30.52,NE,45,3.0,6.0,89,0.00,,,0.00,meteohub,2013-03-01 08:29:00,
2013-03-01 08:34:00,36.1,33.3,30.52,SE,135,2.0,6.0,89,0.00,,,0.00,meteohub,2013-03-01 08:34:00,
2013-03-01 08:39:00,36.1,32.9,30.52,East,90,0.0,6.0,88,0.00,,,0.00,meteohub,2013-03-01 08:39:00,
2013-03-01 08:44:00,36.3,33.1,30.52,SE,135,0.0,3.0,88,0.00,,,0.00,meteohub,2013-03-01 08:44:00,
2013-03-01 08:49:00,36.5,33.6,30.55,SE,135,0.0,2.0,89,0.00,,,0.00,meteohub,2013-03-01 08:49:00,
2013-03-01 08:54:00,36.9,34.0,30.55,SSE,158,0.0,2.0,89,0.00,,,0.00,meteohub,2013-03-01 08:54:00,
2013-03-01 08:59:00,37.4,34.2,30.55,SSE,158,0.0,2.0,88,0.00,,,0.00,meteohub,2013-03-01 08:59:00,
2013-03-01 09:05:00,37.6,34.7,30.55,South,180,0.0,0.0,89,0.00,,,0.00,meteohub,2013-03-01 09:05:00,
2013-03-01 09:10:00,37.9,35.1,30.55,South,180,0.0,2.0,89,0.00,,,0.00,meteohub,2013-03-01 09:10:00,
2013-03-01 09:15:00,38.3,35.4,30.55,SSE,158,2.0,3.0,89,0.00,,,0.00,meteohub,2013-03-01 09:15:00,
2013-03-01 09:20:00,38.5,35.2,30.55,SSE,158,0.0,3.0,88,0.00,,,0.00,meteohub,2013-03-01 09:20:00,
2013-03-01 09:25:00,38.7,35.4,30.55,SSE,158,0.0,3.0,88,0.00,,,0.00,meteohub,2013-03-01 09:25:00,
2013-03-01 09:30:00,38.8,35.6,30.55,SSE,158,0.0,2.0,88,0.00,,,0.00,meteohub,2013-03-01 09:30:00,
2013-03-01 09:35:00,39.2,36.0,30.55,SSE,158,0.0,2.0,88,0.00,,,0.00,meteohub,2013-03-01 09:35:00,
2013-03-01 09:40:00,39.6,36.3,30.55,SSE,158,3.0,4.0,88,0.00,,,0.00,meteohub,2013-03-01 09:40:00,
2013-03-01 09:45:00,39.9,36.7,30.55,SSE,158,1.0,4.0,88,0.00,,,0.00,meteohub,2013-03-01 09:45:00,
2013-03-01 09:50:00,40.5,36.9,30.55,SSE,158,5.0,7.0,87,0.00,,,0.00,meteohub,2013-03-01 09:50:00,
2013-03-01 09:55:00,41.0,36.9,30.55,SSE,158,6.0,7.0,85,0.00,,,0.00,meteohub,2013-03-01 09:55:00,
2013-03-01 10:00:00,41.4,36.7,30.55,SSE,158,6.0,7.0,83,0.00,,,0.00,meteohub,2013-03-01 10:00:00,
2013-03-01 10:05:00,41.9,36.5,30.55,SSE,158,6.0,8.0,81,0.00,,,0.00,meteohub,2013-03-01 10:05:00,
2013-03-01 10:11:00,42.3,36.3,30.55,SSE,158,6.0,8.0,79,0.00,,,0.00,meteohub,2013-03-01 10:11:00,
2013-03-01 10:16:00,42.6,36.3,30.55,SE,135,5.0,8.0,78,0.00,,,0.00,meteohub,2013-03-01 10:16:00,
2013-03-01 10:21:00,42.8,36.5,30.55,SE,135,6.0,8.0,78,0.00,,,0.00,meteohub,2013-03-01 10:21:00,
2013-03-01 10:26:00,43.2,36.5,30.55,SE,135,9.0,9.0,77,0.00,,,0.00,meteohub,2013-03-01 10:26:00,
2013-03-01 10:31:00,43.3,36.3,30.55,SE,135,6.0,9.0,76,0.00,,,0.00,meteohub,2013-03-01 10:31:00,
2013-03-01 10:36:00,43.7,36.0,30.55,SE,135,6.0,10.0,74,0.00,,,0.00,meteohub,2013-03-01 10:36:00,
2013-03-01 10:41:00,43.7,35.6,30.55,SE,135,10.0,10.0,73,0.00,,,0.00,meteohub,2013-03-01 10:41:00,
2013-03-01 10:46:00,43.9,34.7,30.55,SE,135,8.0,10.0,70,0.00,,,0.00,meteohub,2013-03-01 10:46:00,
2013-03-01 10:51:00,44.1,34.2,30.55,SE,135,7.0,10.0,68,0.00,,,0.00,meteohub,2013-03-01 10:51:00,
2013-03-01 10:56:00,44.1,32.7,30.55,SE,135,4.0,10.0,64,0.00,,,0.00,meteohub,2013-03-01 10:56:00,
2013-03-01 11:01:00,44.2,33.6,30.55,East,90,6.0,9.0,66,0.00,,,0.00,meteohub,2013-03-01 11:01:00,
2013-03-01 11:06:00,44.4,33.4,30.55,ENE,68,6.0,8.0,65,0.00,,,0.00,meteohub,2013-03-01 11:06:00,
2013-03-01 11:12:00,44.8,34.2,30.55,SSE,158,7.0,9.0,66,0.00,,,0.00,meteohub,2013-03-01 11:12:00,
2013-03-01 11:17:00,45.1,32.9,30.55,SSE,158,11.0,11.0,62,0.00,,,0.00,meteohub,2013-03-01 11:17:00,
2013-03-01 11:22:00,45.3,31.8,30.55,SE,135,10.0,13.0,59,0.00,,,0.00,meteohub,2013-03-01 11:22:00,
2013-03-01 11:27:00,45.3,31.8,30.55,SSE,158,11.0,13.0,59,0.00,,,0.00,meteohub,2013-03-01 11:27:00,
2013-03-01 11:32:00,45.5,32.0,30.55,SSE,158,10.0,13.0,59,0.00,,,0.00,meteohub,2013-03-01 11:32:00,
2013-03-01 11:37:00,45.7,31.3,30.55,SE,135,10.0,13.0,57,0.00,,,0.00,meteohub,2013-03-01 11:37:00,
2013-03-01 11:42:00,45.7,31.3,30.55,SSE,158,10.0,13.0,57,0.00,,,0.00,meteohub,2013-03-01 11:42:00,
2013-03-01 11:47:00,45.9,31.1,30.55,SSE,158,10.0,13.0,56,0.00,,,0.00,meteohub,2013-03-01 11:47:00,
2013-03-01 11:52:00,45.9,30.2,30.55,SSE,158,10.0,13.0,54,0.00,,,0.00,meteohub,2013-03-01 11:52:00,
2013-03-01 11:57:00,46.0,30.4,30.55,SSE,158,15.0,15.0,54,0.00,,,0.00,meteohub,2013-03-01 11:57:00,
2013-03-01 12:02:00,46.2,30.9,30.55,SE,135,9.0,17.0,55,0.00,,,0.00,meteohub,2013-03-01 12:02:00,
2013-03-01 12:07:00,46.2,31.5,30.55,SE,135,9.0,17.0,56,0.00,,,0.00,meteohub,2013-03-01 12:07:00,
2013-03-01 12:12:00,46.0,29.8,30.55,SSE,158,12.0,17.0,53,0.00,,,0.00,meteohub,2013-03-01 12:12:00,
2013-03-01 12:17:00,45.9,29.7,30.55,South,180,7.0,13.0,53,0.00,,,0.00,meteohub,2013-03-01 12:17:00,
2013-03-01 12:23:00,45.9,29.7,30.55,SSE,158,11.0,13.0,53,0.00,,,0.00,meteohub,2013-03-01 12:23:00,
2013-03-01 12:28:00,46.0,30.4,30.55,SE,135,10.0,13.0,54,0.00,,,0.00,meteohub,2013-03-01 12:28:00,
2013-03-01 12:33:00,46.0,29.8,30.55,SSE,158,8.0,13.0,53,0.00,,,0.00,meteohub,2013-03-01 12:33:00,
2013-03-01 12:38:00,46.2,30.0,30.55,SSE,158,12.0,13.0,53,0.00,,,0.00,meteohub,2013-03-01 12:38:00,
2013-03-01 12:43:00,46.2,29.1,30.55,SSE,158,10.0,13.0,51,0.00,,,0.00,meteohub,2013-03-01 12:43:00,
2013-03-01 12:48:00,46.2,28.6,30.55,SE,135,10.0,13.0,50,0.00,,,0.00,meteohub,2013-03-01 12:48:00,
2013-03-01 12:53:00,46.2,28.6,30.55,SSE,158,10.0,13.0,50,0.00,,,0.00,meteohub,2013-03-01 12:53:00,
2013-03-01 12:58:00,46.4,28.8,30.55,SE,135,8.0,13.0,50,0.00,,,0.00,meteohub,2013-03-01 12:58:00,
2013-03-01 13:03:00,46.8,29.7,30.55,SSE,158,11.0,13.0,51,0.00,,,0.00,meteohub,2013-03-01 13:03:00,
2013-03-01 13:08:00,46.6,28.4,30.55,SE,135,11.0,13.0,49,0.00,,,0.00,meteohub,2013-03-01 13:08:00,
2013-03-01 13:13:00,46.4,27.9,30.55,SSE,158,7.0,13.0,48,0.00,,,0.00,meteohub,2013-03-01 13:13:00,
2013-03-01 13:18:00,46.4,28.4,30.52,SSE,158,9.0,13.0,49,0.00,,,0.00,meteohub,2013-03-01 13:18:00,
2013-03-01 13:23:00,46.6,28.0,30.52,SSE,158,6.0,11.0,48,0.00,,,0.00,meteohub,2013-03-01 13:23:00,
2013-03-01 13:28:00,46.9,28.4,30.52,SSE,158,9.0,11.0,48,0.00,,,0.00,meteohub,2013-03-01 13:28:00,
2013-03-01 13:33:00,47.1,28.4,30.52,SE,135,6.0,11.0,48,0.00,,,0.00,meteohub,2013-03-01 13:33:00,
2013-03-01 13:38:00,47.3,28.2,30.52,SE,135,8.0,11.0,47,0.00,,,0.00,meteohub,2013-03-01 13:38:00,
2013-03-01 13:44:00,47.5,28.8,30.52,ESE,112,7.0,11.0,48,0.00,,,0.00,meteohub,2013-03-01 13:44:00,
2013-03-01 13:49:00,48.0,29.3,30.52,SE,135,6.0,10.0,48,0.00,,,0.00,meteohub,2013-03-01 13:49:00,
2013-03-01 13:54:00,47.8,27.5,30.52,SSE,158,5.0,10.0,45,0.00,,,0.00,meteohub,2013-03-01 13:54:00,
2013-03-01 13:59:00,47.8,27.5,30.52,South,180,6.0,10.0,45,0.00,,,0.00,meteohub,2013-03-01 13:59:00,
2013-03-01 14:04:00,48.0,27.7,30.52,SE,135,6.0,10.0,45,0.00,,,0.00,meteohub,2013-03-01 14:04:00,
2013-03-01 14:09:00,48.2,27.3,30.52,SSE,158,7.0,10.0,44,0.00,,,0.00,meteohub,2013-03-01 14:09:00,
2013-03-01 14:14:00,48.2,27.3,30.52,SSE,158,4.0,9.0,44,0.00,,,0.00,meteohub,2013-03-01 14:14:00,
2013-03-01 14:19:00,47.8,27.0,30.52,SSE,158,4.0,9.0,44,0.00,,,0.00,meteohub,2013-03-01 14:19:00,
2013-03-01 14:24:00,47.3,26.1,30.52,South,180,4.0,11.0,43,0.00,,,0.00,meteohub,2013-03-01 14:24:00,
2013-03-01 14:29:00,47.1,26.4,30.52,SSE,158,1.0,11.0,44,0.00,,,0.00,meteohub,2013-03-01 14:29:00,
2013-03-01 14:34:00,46.9,26.2,30.52,SE,135,5.0,11.0,44,0.00,,,0.00,meteohub,2013-03-01 14:34:00,
2013-03-01 14:39:00,47.1,27.0,30.52,East,90,6.0,8.0,45,0.00,,,0.00,meteohub,2013-03-01 14:39:00,
2013-03-01 14:44:00,47.1,27.5,30.52,SE,135,5.0,6.0,46,0.00,,,0.00,meteohub,2013-03-01 14:44:00,
2013-03-01 14:49:00,47.1,27.5,30.52,SE,135,5.0,6.0,46,0.00,,,0.00,meteohub,2013-03-01 14:49:00,
2013-03-01 14:54:00,47.1,27.5,30.52,SE,135,4.0,6.0,46,0.00,,,0.00,meteohub,2013-03-01 14:54:00,
2013-03-01 15:00:00,46.9,27.3,30.52,ESE,112,6.0,6.0,46,0.00,,,0.00,meteohub,2013-03-01 15:00:00,
2013-03-01 15:05:00,46.9,27.9,30.52,SE,135,5.0,8.0,47,0.00,,,0.00,meteohub,2013-03-01 15:05:00,
2013-03-01 15:10:00,46.9,26.2,30.52,South,180,4.0,8.0,44,0.00,,,0.00,meteohub,2013-03-01 15:10:00,
2013-03-01 15:15:00,46.8,26.1,30.52,South,180,3.0,7.0,44,0.00,,,0.00,meteohub,2013-03-01 15:15:00,
2013-03-01 15:20:00,46.8,26.6,30.49,SSE,158,5.0,6.0,45,0.00,,,0.00,meteohub,2013-03-01 15:20:00,
2013-03-01 15:25:00,46.9,27.3,30.49,South,180,8.0,8.0,46,0.00,,,0.00,meteohub,2013-03-01 15:25:00,
2013-03-01 15:30:00,47.1,26.4,30.49,SW,225,4.0,8.0,44,0.00,,,0.00,meteohub,2013-03-01 15:30:00,
2013-03-01 15:35:00,47.5,26.1,30.49,SSW,202,3.0,8.0,43,0.00,,,0.00,meteohub,2013-03-01 15:35:00,
2013-03-01 15:40:00,47.7,25.7,30.49,South,180,4.0,8.0,42,0.00,,,0.00,meteohub,2013-03-01 15:40:00,
2013-03-01 15:45:00,47.7,25.2,30.49,SSW,202,4.0,6.0,41,0.00,,,0.00,meteohub,2013-03-01 15:45:00,
2013-03-01 15:50:00,47.7,25.7,30.52,SSW,202,5.0,6.0,42,0.00,,,0.00,meteohub,2013-03-01 15:50:00,
2013-03-01 15:55:00,47.7,25.2,30.52,SSW,202,3.0,6.0,41,0.00,,,0.00,meteohub,2013-03-01 15:55:00,
2013-03-01 16:00:00,47.5,25.0,30.52,SSW,202,7.0,8.0,41,0.00,,,0.00,meteohub,2013-03-01 16:00:00,
2013-03-01 16:05:00,47.3,25.3,30.49,SSW,202,6.0,9.0,42,0.00,,,0.00,meteohub,2013-03-01 16:05:00,
2013-03-01 16:10:00,47.3,24.8,30.49,SSW,202,3.0,9.0,41,0.00,,,0.00,meteohub,2013-03-01 16:10:00,
2013-03-01 16:15:00,46.9,25.2,30.49,South,180,6.0,9.0,42,0.00,,,0.00,meteohub,2013-03-01 16:15:00,
2013-03-01 16:20:00,46.8,25.0,30.49,SSW,202,3.0,6.0,42,0.00,,,0.00,meteohub,2013-03-01 16:20:00,
2013-03-01 16:26:00,46.6,25.3,30.49,SSW,202,4.0,6.0,43,0.00,,,0.00,meteohub,2013-03-01 16:26:00,
2013-03-01 16:31:00,46.6,24.8,30.49,SSW,202,2.0,6.0,42,0.00,,,0.00,meteohub,2013-03-01 16:31:00,
2013-03-01 16:36:00,46.2,24.4,30.49,SSW,202,2.0,4.0,42,0.00,,,0.00,meteohub,2013-03-01 16:36:00,
2013-03-01 16:41:00,46.0,24.8,30.49,South,180,4.0,4.0,43,0.00,,,0.00,meteohub,2013-03-01 16:41:00,
2013-03-01 16:46:00,45.9,25.2,30.49,SSW,202,5.0,5.0,44,0.00,,,0.00,meteohub,2013-03-01 16:46:00,
2013-03-01 16:51:00,45.7,24.4,30.49,SSW,202,3.0,5.0,43,0.00,,,0.00,meteohub,2013-03-01 16:51:00,
2013-03-01 16:56:00,45.7,25.0,30.49,SSW,202,1.0,5.0,44,0.00,,,0.00,meteohub,2013-03-01 16:56:00,
2013-03-01 17:01:00,45.5,25.0,30.49,SSW,202,3.0,5.0,44,0.00,,,0.00,meteohub,2013-03-01 17:01:00,
2013-03-01 17:06:00,45.3,25.3,30.49,SSW,202,0.0,3.0,45,0.00,,,0.00,meteohub,2013-03-01 17:06:00,
2013-03-01 17:11:00,45.1,25.2,30.49,SSW,202,2.0,3.0,45,0.00,,,0.00,meteohub,2013-03-01 17:11:00,
2013-03-01 17:16:00,45.0,25.5,30.49,SSW,202,0.0,3.0,46,0.00,,,0.00,meteohub,2013-03-01 17:16:00,
2013-03-01 17:21:00,44.8,25.3,30.49,SSW,202,1.0,3.0,46,0.00,,,0.00,meteohub,2013-03-01 17:21:00,
2013-03-01 17:26:00,44.8,25.3,30.49,SSW,202,0.0,3.0,46,0.00,,,0.00,meteohub,2013-03-01 17:26:00,
2013-03-01 17:31:00,44.6,25.7,30.49,SSW,202,0.0,2.0,47,0.00,,,0.00,meteohub,2013-03-01 17:31:00,
2013-03-01 17:36:00,44.2,25.3,30.49,SSW,202,0.0,1.0,47,0.00,,,0.00,meteohub,2013-03-01 17:36:00,
2013-03-01 17:41:00,44.1,25.2,30.49,SSW,202,0.0,0.0,47,0.00,,,0.00,meteohub,2013-03-01 17:41:00,
2013-03-01 17:47:00,43.5,25.2,30.49,SSW,202,0.0,0.0,48,0.00,,,0.00,meteohub,2013-03-01 17:47:00,
2013-03-01 17:52:00,43.2,24.8,30.49,SSW,202,0.0,0.0,48,0.00,,,0.00,meteohub,2013-03-01 17:52:00,
2013-03-01 17:57:00,42.4,24.6,30.49,SSW,202,0.0,0.0,49,0.00,,,0.00,meteohub,2013-03-01 17:57:00,
2013-03-01 18:02:00,42.1,24.3,30.49,SSW,202,0.0,0.0,49,0.00,,,0.00,meteohub,2013-03-01 18:02:00,
2013-03-01 18:07:00,41.4,23.7,30.46,East,90,2.0,0.0,49,0.00,,,0.00,meteohub,2013-03-01 18:07:00,
2013-03-01 18:12:00,41.0,23.4,30.46,East,90,0.0,3.0,49,0.00,,,0.00,meteohub,2013-03-01 18:12:00,
2013-03-01 18:17:00,40.5,23.4,30.46,East,90,0.0,3.0,50,0.00,,,0.00,meteohub,2013-03-01 18:17:00,
2013-03-01 18:22:00,39.9,22.8,30.46,East,90,0.0,3.0,50,0.00,,,0.00,meteohub,2013-03-01 18:22:00,
2013-03-01 18:27:00,39.4,22.8,30.46,East,90,0.0,0.0,51,0.00,,,0.00,meteohub,2013-03-01 18:27:00,
2013-03-01 18:32:00,39.0,22.5,30.46,East,90,0.0,0.0,51,0.00,,,0.00,meteohub,2013-03-01 18:32:00,
2013-03-01 18:37:00,38.7,22.6,30.49,East,90,0.0,0.0,52,0.00,,,0.00,meteohub,2013-03-01 18:37:00,
2013-03-01 18:42:00,38.3,22.6,30.49,NE,45,0.0,0.0,53,0.00,,,0.00,meteohub,2013-03-01 18:42:00,
2013-03-01 18:47:00,37.9,22.5,30.49,NNE,22,1.0,0.0,53,0.00,,,0.00,meteohub,2013-03-01 18:47:00,
2013-03-01 18:52:00,37.6,22.5,30.46,NNE,22,3.0,3.0,54,0.00,,,0.00,meteohub,2013-03-01 18:52:00,
2013-03-01 18:57:00,37.4,22.8,30.46,North,0,3.0,3.0,55,0.00,,,0.00,meteohub,2013-03-01 18:57:00,
2013-03-01 19:03:00,37.0,22.8,30.46,North,0,3.0,4.0,56,0.00,,,0.00,meteohub,2013-03-01 19:03:00,
2013-03-01 19:08:00,36.9,23.2,30.46,North,0,3.0,4.0,57,0.00,,,0.00,meteohub,2013-03-01 19:08:00,
2013-03-01 19:13:00,36.7,23.4,30.46,North,0,2.0,4.0,58,0.00,,,0.00,meteohub,2013-03-01 19:13:00,
2013-03-01 19:18:00,36.3,23.4,30.46,North,0,2.0,3.0,59,0.00,,,0.00,meteohub,2013-03-01 19:18:00,
2013-03-01 19:23:00,36.3,23.7,30.46,North,0,3.0,4.0,60,0.00,,,0.00,meteohub,2013-03-01 19:23:00,
2013-03-01 19:28:00,36.1,24.1,30.46,North,0,4.0,4.0,61,0.00,,,0.00,meteohub,2013-03-01 19:28:00,
2013-03-01 19:33:00,36.0,24.3,30.46,North,0,4.0,4.0,62,0.00,,,0.00,meteohub,2013-03-01 19:33:00,
2013-03-01 19:38:00,35.8,24.8,30.46,North,0,4.0,4.0,64,0.00,,,0.00,meteohub,2013-03-01 19:38:00,
2013-03-01 19:43:00,35.8,24.8,30.46,North,0,3.0,4.0,64,0.00,,,0.00,meteohub,2013-03-01 19:43:00,
2013-03-01 19:48:00,35.6,25.0,30.46,North,0,3.0,4.0,65,0.00,,,0.00,meteohub,2013-03-01 19:48:00,
2013-03-01 19:54:00,35.4,25.2,30.46,North,0,4.0,4.0,66,0.00,,,0.00,meteohub,2013-03-01 19:54:00,
2013-03-01 19:59:00,35.4,25.5,30.46,North,0,3.0,4.0,67,0.00,,,0.00,meteohub,2013-03-01 19:59:00,
2013-03-01 20:04:00,35.2,25.7,30.46,North,0,3.0,4.0,68,0.00,,,0.00,meteohub,2013-03-01 20:04:00,
2013-03-01 20:09:00,35.1,25.5,30.46,North,0,3.0,4.0,68,0.00,,,0.00,meteohub,2013-03-01 20:09:00,
2013-03-01 20:14:00,35.1,25.9,30.46,North,0,3.0,4.0,69,0.00,,,0.00,meteohub,2013-03-01 20:14:00,
2013-03-01 20:19:00,34.9,25.7,30.46,North,0,3.0,4.0,69,0.00,,,0.00,meteohub,2013-03-01 20:19:00,
2013-03-01 20:24:00,34.5,25.3,30.46,North,0,3.0,4.0,69,0.00,,,0.00,meteohub,2013-03-01 20:24:00,
2013-03-01 20:30:00,34.3,25.5,30.46,North,0,3.0,3.0,70,0.00,,,0.00,meteohub,2013-03-01 20:30:00,
2013-03-01 20:35:00,34.3,25.5,30.46,North,0,3.0,3.0,70,0.00,,,0.00,meteohub,2013-03-01 20:35:00,
2013-03-01 20:40:00,34.0,25.3,30.46,North,0,3.0,3.0,70,0.00,,,0.00,meteohub,2013-03-01 20:40:00,
2013-03-01 20:45:00,34.0,25.5,30.46,North,0,3.0,3.0,71,0.00,,,0.00,meteohub,2013-03-01 20:45:00,
2013-03-01 20:50:00,34.0,25.5,30.46,North,0,3.0,3.0,71,0.00,,,0.00,meteohub,2013-03-01 20:50:00,
2013-03-01 20:55:00,33.8,25.7,30.46,North,0,3.0,4.0,72,0.00,,,0.00,meteohub,2013-03-01 20:55:00,
2013-03-01 21:00:00,33.6,25.5,30.46,North,0,3.0,4.0,72,0.00,,,0.00,meteohub,2013-03-01 21:00:00,
2013-03-01 21:05:00,33.6,25.9,30.46,North,0,3.0,4.0,73,0.00,,,0.00,meteohub,2013-03-01 21:05:00,
2013-03-01 21:10:00,33.4,25.7,30.46,North,0,2.0,4.0,73,0.00,,,0.00,meteohub,2013-03-01 21:10:00,
2013-03-01 21:15:00,33.3,25.5,30.46,North,0,2.0,3.0,73,0.00,,,0.00,meteohub,2013-03-01 21:15:00,
2013-03-01 21:20:00,33.3,25.9,30.46,NNW,338,2.0,4.0,74,0.00,,,0.00,meteohub,2013-03-01 21:20:00,
2013-03-01 21:25:00,33.1,25.7,30.46,WNW,292,0.0,4.0,74,0.00,,,0.00,meteohub,2013-03-01 21:25:00,
2013-03-01 21:30:00,33.1,25.7,30.46,NNW,338,0.0,4.0,74,0.00,,,0.00,meteohub,2013-03-01 21:30:00,
2013-03-01 21:36:00,32.7,25.3,30.46,NNW,338,0.0,3.0,74,0.00,,,0.00,meteohub,2013-03-01 21:36:00,
2013-03-01 21:41:00,32.7,25.3,30.46,NW,315,0.0,3.0,74,0.00,,,0.00,meteohub,2013-03-01 21:41:00,
2013-03-01 21:46:00,32.5,25.5,30.46,NW,315,0.0,2.0,75,0.00,,,0.00,meteohub,2013-03-01 21:46:00,
2013-03-01 21:51:00,32.5,25.5,30.46,NNW,338,3.0,3.0,75,0.00,,,0.00,meteohub,2013-03-01 21:51:00,
2013-03-01 21:56:00,32.4,25.3,30.46,NNW,338,3.0,3.0,75,0.00,,,0.00,meteohub,2013-03-01 21:56:00,
2013-03-01 22:01:00,32.4,25.7,30.46,NNW,338,0.0,3.0,76,0.00,,,0.00,meteohub,2013-03-01 22:01:00,
2013-03-01 22:06:00,32.2,25.5,30.46,NNW,338,0.0,3.0,76,0.00,,,0.00,meteohub,2013-03-01 22:06:00,
2013-03-01 22:11:00,32.2,25.5,30.46,NNW,338,0.0,3.0,76,0.00,,,0.00,meteohub,2013-03-01 22:11:00,
2013-03-01 22:16:00,32.0,25.3,30.46,NW,315,0.0,0.0,76,0.00,,,0.00,meteohub,2013-03-01 22:16:00,
2013-03-01 22:21:00,31.8,25.2,30.46,West,270,3.0,3.0,76,0.00,,,0.00,meteohub,2013-03-01 22:21:00,
2013-03-01 22:26:00,31.8,25.5,30.46,West,270,0.0,4.0,77,0.00,,,0.00,meteohub,2013-03-01 22:26:00,
2013-03-01 22:31:00,31.8,25.5,30.46,West,270,0.0,4.0,77,0.00,,,0.00,meteohub,2013-03-01 22:31:00,
2013-03-01 22:36:00,31.5,25.2,30.46,WNW,292,2.0,4.0,77,0.00,,,0.00,meteohub,2013-03-01 22:36:00,
2013-03-01 22:41:00,31.8,25.2,30.46,West,270,4.0,4.0,76,0.00,,,0.00,meteohub,2013-03-01 22:41:00,
2013-03-01 22:46:00,32.4,26.1,30.46,West,270,6.0,6.0,77,0.00,,,0.00,meteohub,2013-03-01 22:46:00,
2013-03-01 22:51:00,32.5,26.2,30.46,West,270,4.0,6.0,77,0.00,,,0.00,meteohub,2013-03-01 22:51:00,
2013-03-01 22:57:00,32.4,26.1,30.46,WNW,292,4.0,6.0,77,0.00,,,0.00,meteohub,2013-03-01 22:57:00,
2013-03-01 23:02:00,32.0,25.7,30.46,WNW,292,4.0,6.0,77,0.00,,,0.00,meteohub,2013-03-01 23:02:00,
2013-03-01 23:07:00,32.2,25.9,30.46,West,270,5.0,6.0,77,0.00,,,0.00,meteohub,2013-03-01 23:07:00,
2013-03-01 23:12:00,32.5,26.4,30.46,West,270,6.0,6.0,78,0.00,,,0.00,meteohub,2013-03-01 23:12:00,
2013-03-01 23:17:00,32.9,27.1,30.46,West,270,6.0,6.0,79,0.00,,,0.00,meteohub,2013-03-01 23:17:00,
2013-03-01 23:22:00,33.3,27.5,30.46,WNW,292,5.0,6.0,79,0.00,,,0.00,meteohub,2013-03-01 23:22:00,
2013-03-01 23:27:00,33.4,28.0,30.46,West,270,5.0,6.0,80,0.00,,,0.00,meteohub,2013-03-01 23:27:00,
2013-03-01 23:32:00,33.8,28.6,30.46,West,270,4.0,6.0,81,0.00,,,0.00,meteohub,2013-03-01 23:32:00,
2013-03-01 23:37:00,34.0,29.1,30.43,West,270,4.0,6.0,82,0.00,,,0.00,meteohub,2013-03-01 23:37:00,
2013-03-01 23:42:00,34.2,29.8,30.43,West,270,6.0,6.0,84,0.00,,,0.00,meteohub,2013-03-01 23:42:00,
2013-03-01 23:47:00,34.3,30.4,30.43,West,270,4.0,6.0,85,0.00,,,0.00,meteohub,2013-03-01 23:47:00,
2013-03-01 23:52:00,34.0,29.7,30.43,West,270,5.0,6.0,84,0.00,,,0.00,meteohub,2013-03-01 23:52:00,
2013-03-01 23:57:00,33.8,29.5,30.43,West,270,4.0,6.0,84,0.00,,,0.00,meteohub,2013-03-01 23:57:00,